Regional Weather Roundup
Issued by NWS Glasgow, MT

Home | Current Version | Previous Version | Text Only | Print | Product List | Glossary On
Versions: 1 2 3 4 5 6 7 8 9 10 11 12 13 14 15 16 17 18 19 20 21 22 23 24 25 26 27 28 29 30 31 32 33 34 35 36 37 38 39 40 41 42 43 44 45 46 47 48 49 50
000
ASUS45 KGGW 231115
RWRGGW
HOURLY WEATHER ROUNDUP FOR NORTHEAST MONTANA
NATIONAL WEATHER SERVICE GLASGOW MONTANA
500 AM MDT SAT AUG 23 2014

NOTE: "FAIR" INDICATES FEW OR NO CLOUDS BELOW 12,000 FEET WITH NO
SIGNIFICANT WEATHER AND/OR OBSTRUCTIONS TO VISISBILITY.

NORTHEAST MONTANA


CITY           SKY/WX    TMP DP  RH WIND       PRES   REMARKS
GLASGOW        RAIN      57  56  96 NE22G30   30.02F FOG
PLENTYWOOD       N/A     56  52  86 E16         N/A
WOLF POINT     HVY RAIN  58  55  90 NE25G32   30.02F FOG
JORDAN           N/A     58  56  93 NE22G28   29.97F
WINNETT          N/A     56  54  93 NE12G20     N/A
SIDNEY         CLOUDY    59  57  94 NE14G20   30.03F
GLENDIVE       CLOUDY    61  61 100 NE16      29.99S
MALTA            N/A     58  55  90 NE12G20     N/A
SCOBEY           N/A     54  49  83 NE9       30.08F

FORT PECK REPORTS


CITY           SKY/WX    TMP DP  RH WIND       PRES   REMARKS
FORT PECK        N/A     56  55  97 NE25G38     N/A
THE PINES        N/A     59  57  93 NE20G33     N/A

SOUTHEAST MONTANA


CITY           SKY/WX    TMP DP  RH WIND       PRES   REMARKS
BILLINGS       FOG       60  59  96 CALM      29.91F VSB 1/2
MILES CITY     CLOUDY    63  61  93 NE12      29.91F
BAKER          HVY RAIN  61  60  97 NW3       29.97S VSB 1
LIVINGSTON     LGT RAIN  51  46  83 NW22      30.00F

CENTRAL MONTANA


CITY           SKY/WX    TMP DP  RH WIND       PRES   REMARKS
HAVRE          LGT RAIN  56  53  90 NE17      30.10S
LEWISTOWN      RAIN      54  52  93 N9        30.01F
GREAT FALLS    RAIN      49  49 100 NW14      30.08S FOG
CUT BANK       LGT RAIN  46  44  93 N18       30.21S
HELENA         LGT RAIN  49  45  86 NW10      30.11S
BUTTE          LGT RAIN  46  43  89 NW13      30.10R
BOZEMAN        CLOUDY    50  47  89 W12       30.02F

WESTERN MONTANA


CITY           SKY/WX    TMP DP  RH WIND       PRES   REMARKS
MISSOULA       CLOUDY    55  44  66 NW12      30.12S
KALISPELL      NOT AVBL

NORTH DAKOTA


CITY           SKY/WX    TMP DP  RH WIND       PRES   REMARKS
WILLISTON      CLOUDY    59  53  80 NE16      30.08F
DICKINSON      CLOUDY    60  59  96 E20G26    30.00S FOG
MINOT          CLOUDY    56  54  93 NE8       30.10F
BISMARCK       CLOUDY    63  59  87 NE14      30.03S

SOUTHERN SASKATCHEWAN


CITY           SKY/WX    TMP DP  RH WIND       PRES   REMARKS
REGINA         CLOUDY    54  50  87 NE13      30.21F
ESTEVAN        CLOUDY    55  52  88 E7        30.15F
SWIFT CURRENT  CLOUDY    52  52 100 NE12G17   30.20F



USA.gov is the U.S. government's official web portal to all federal, state and local government web resources and services.